Location: Drebach
(50.6670°N, 13.0330°E)
Time: 13:16:33
(UTC+01:00)

ISS - Visible Passes

Search period start: 03 December 2022 00:00
Search period end: 13 December 2022 00:00
Orbit: 414 x 420 km, 51.6° (Epoch: 03 December)

Date Brightness Start Highest point End Pass type
(mag) Time Alt. Az. Time Alt. Az. Time Alt. Az.
03 Dec -2.8 17:52:14 10° W 17:55:28 46° SSW 17:57:24 20° SE visible
04 Dec -3.3 17:04:05 10° WNW 17:07:24 63° SSW 17:10:42 10° ESE visible
04 Dec -1.1 18:41:30 10° W 18:43:41 16° SW 18:44:45 14° SSW visible
05 Dec -1.5 17:52:58 10° W 17:55:43 24° SW 17:58:27 10° SSE visible
06 Dec -2.0 17:04:37 10° W 17:07:41 34° SSW 17:10:45 10° SE visible
07 Dec -0.4 17:54:35 10° WSW 17:55:44 11° SW 17:56:51 10° SSW visible
08 Dec -0.7 17:05:29 10° W 17:07:44 17° SW 17:10:00 10° S visible
